IRIDIUM 33 DEB, 34870

Orbit data source: Space-Track

IRIDIUM 33 DEB, 34870 is space debris in LEO originally from a launch on Sun, 14 Sep 1997 UTC launched from the Tyuratam Missile And Space Complex (TTMTR). The debris from Iridium 33, an American commercial communications satellite, has been tracked extensively since its accidental collision with the defunct Russian satellite Cosmos 2251 in 2009. This event, occurring at high speed in low Earth orbit (LEO), generated thousands of pieces of space debris, significantly increasing the risk of further collisions. The Iridium 33 debris cloud has impacted space traffic management and orbital debris mitigation strategies, making it a subject of ongoing study in space situational awareness.

Loading next visibility...
Identifier
34870, 1997-051MQ
Orbit
LEO
Country
Flag of USUS
Related business
Manufacturer
Unknown
Mission
Spacecraft
Bus & Motor
Unknown
Mass
Unknown
Launch date (UTC)
1997-09-14 (28 years ago)
Launch vehicle
Unknown
Launch site
Tyuratam Missile And Space Complex (TTMTR)
Object type
Payload
Rocket body
Debris
Shape & HBR
Unknown shape, 0.1 m
Radar Cross Section
Small (<0.1 m²)

Expand to show TLE details & history
Last TLE update: 17 hours ago

TLE from 17 hours ago
0 IRIDIUM 33 DEB
1 34870U 97051MQ  25294.40766294  .00012753  00000-0  18863-2 0  9990
2 34870  86.3132 338.0247 0017893  23.6138  33.8708 14.75003025881390
Epoch: 2025-10-21T09:47Z
TLE epoch observation values (Epoch: 2025-10-21T09:47:02.078Z)
Latitude
57.51183°
Longitude
166.94612°
Altitude
644.482 km
Speed
7.547 km/s
True Right ascension
22h 55m 12s
True Declination
57° 21' 12"
Sunlit
Object was in full shadow at epoch
Visualization orbit readout
Latitude
Unknown
Longitude
Unknown
Altitude
Unknown
Speed
Unknown
Apparent Right ascension
Unknown
Apparent Declination
Unknown
Sunlit
N/A
Visualization observer readout
Local Sidereal Time
21:38:38
Azimuth
Unknown
Elevation
Unknown
Doppler factor
Unknown
Orbital elements
Apogee altitude
654.612 km
Perigee altitude
629.489 km
Semi-major axis
7,020.187 km
Eccentricity
0.00179
Inclination
86.3132°
RAAN
338.0247°
Arg. of periapsis
23.6138°
True anomaly
33.98529°
Mean anomaly
33.8708°
Eccentric anomaly
33.92802°
Mean motion
3.68995 °/min
Orbital period
97.56 mins
BSTAR
0.0018863
Loading maneuver chart data...
Computing Atmospheric mass density...

Documentation

Showing up to 5 results
|